Regional Weather Roundup
Issued by NWS Nashville, TN

Home | Current Version | Previous Version | Text Only | Print | Product List | Glossary On
Versions: 1 2 3 4 5 6 7 8 9 10 11 12 13 14 15 16 17 18 19 20 21 22 23 24 25 26 27 28 29 30 31 32 33 34 35 36 37 38 39 40 41 42 43 44 45 46 47 48 49 50
068
ASUS44 KOHX 300110
RWROHX
MIDDLE TENNESSEE HOURLY WEATHER ROUNDUP
NATIONAL WEATHER SERVICE NASHVILLE TN
800 PM CDT SUN MAY 29 2016

NOTE: "FAIR" INDICATES FEW OR NO CLOUDS BELOW 12,000 FEET WITH
NO SIGNIFICANT WEATHER AND/OR OBSTRUCTIONS TO VISIBILITY.

* THESE REPORTS ARE NOT UNDER NWS QUALITY CONTROL AND MAY NOT
  REPORT WEATHER SUCH AS PRECIPITATION AND FOG.


TNZ005>011-023>034-057-059-062>066-078-080-300200
...NORTHERN MIDDLE TENNESSEE...

CITY           SKY/WX    TMP DP  RH WIND       PRES   REMARKS
CLARKSVILLE    PTCLDY    80  66  62 CALM      30.03S
CROSSVILLE     CLEAR     73  63  70 CALM      30.10S
DICKSON        CLEAR     75  68  78 CALM      30.05S
LEBANON        CLEAR     81  66  60 VRB3      30.02R
NASHVILLE      PTCLDY    82  64  54 W7        30.04R
SMYRNA         CLEAR     81  66  60 NW8       30.04R
SPARTA         CLEAR     73  68  83 CALM      30.05R
$$
TNZ056-058-060-061-075>077-079-093>097-300200
...SOUTHERN MIDDLE TENNESSEE...

CITY           SKY/WX    TMP DP  RH WIND       PRES   REMARKS
COLUMBIA       CLEAR     81  70  69 CALM      30.04S
FAYETTEVILLE   CLEAR     82  64  54 CALM      30.05S
LEWISBURG      CLEAR     81  65  58 CALM      30.04R
MCMINNVILLE    MOCLDY    79  66  65 CALM      30.05S
SHELBYVILLE    CLEAR     82  66  57 NW7       30.05S
TULLAHOMA      PTCLDY    79  66  65 VRB3      30.06S
WINCHESTER     CLEAR     79  66  65 CALM      30.05S
$$


...KEY TO REMARKS...
VSB - VISIBILITY IN MILES
WCI - WIND CHILL INDEX
HX  - HEAT INDEX





USA.gov is the U.S. government's official web portal to all federal, state and local government web resources and services.